Regional Weather Roundup
Issued by NWS

Home | Current Version | Previous Version | Text Only | Print | Product List | Glossary On
Versions: 1 2 3 4 5 6 7 8 9 10 11 12 13 14 15 16 17 18 19 20 21 22 23 24 25 26 27 28 29 30 31 32 33 34 35 36 37 38 39 40 41 42 43 44 45 46 47 48 49 50
000
ASUS43 KDTX 240210
RWRMI
MICHIGAN HOURLY REGIONAL WEATHER ROUNDUP
NATIONAL WEATHER SERVICE DETROIT/PONTIAC MI
1000 PM EDT TUE AUG 23 2016

NOTE: "FAIR" INDICATES FEW OR NO CLOUDS BELOW 12,000 FEET WITH NO
SIGNIFICANT WEATHER AND/OR OBSTRUCTION TO VISIBILITY.

MIZ047>049-052>055-059>063-066>070-074>076-081>083-240300-
SOUTHEAST LOWER MICHIGAN

CITY           SKY/WX    TMP DP  RH WIND       PRES   REMARKS
ADRIAN         CLEAR     67  62  84 CALM      30.22S
ALMA           CLEAR     65  63  94 SW6       30.19S
ANN ARBOR      CLEAR     61  58  90 CALM      30.21S
BAD AXE        CLEAR     65  61  86 S3        30.21R
CARO           CLEAR     63  62  96 CALM      30.20S
DETROIT CITY   CLEAR     73  62  68 S5        30.22R
DETROIT        PTCLDY    72  62  71 S5        30.22S
FLINT          CLEAR     72  60  66 S6        30.20S
GROSSE ILE     CLEAR     73  60  65 SW6       30.21S
HILLSDALE      CLEAR     62  60  91 CALM      30.21F
HOWELL         CLEAR     69  60  72 S5        30.21S

CITY           SKY/WX    TMP DP  RH WIND       PRES   REMARKS
JACKSON        CLEAR     67  61  81 S5        30.21S
LAMBERTVILLE   CLEAR     66  60  82 CALM      30.23R
LANSING        CLEAR     70  59  68 S6        30.20R
LAPEER         FAIR      61  59  94 CALM      30.22S
MASON          CLEAR     66  60  80 CALM      30.21S
MONROE         CLEAR     64  62  91 CALM      30.21S
MT. CLEMENS    PTCLDY    68  61  76 S7        30.20R
PONTIAC        PTCLDY    70  59  68 S3        30.21S
PORT HURON     CLEAR     63  61  94 CALM      30.23R
TRI CITIES     CLEAR     69  62  78 S6        30.19S
MIDLAND        FAIR      65  62  91 CALM      30.18R
TROY           CLEAR     74  56  54 CALM      30.23F
SAGINAW HB     CLEAR     66  61  82 S5        30.19S
$$
MIZ043>046-050>051-056>058-064>065-071>073-077>080-240300-
SOUTHWEST LOWER MICHIGAN

CITY           SKY/WX    TMP DP  RH WIND       PRES   REMARKS
BATTLE CREEK   CLEAR     68  61  78 SE6       30.20S
BENTON HARBOR  PTCLDY    69  61  75 E5        30.15S
BIG RAPIDS     CLEAR     66  63  90 CALM      30.17S
COLDWATER      PTCLDY    63  61  94 SE5       30.20S
FREMONT        FAIR      66  60  80 S3        30.15S
HOLLAND        PTCLDY    68  62  81 SE6       30.17R
GRAND RAPIDS   PTCLDY    68  59  73 S6        30.18S
IONIA          FAIR      65  59  79 S5        30.18R
KALAMAZOO      CLEAR     71  59  65 S5        30.18S
LUDINGTON      PTCLDY    70  61  72 S8        30.11F
MARSHALL       CLEAR     66  61  82 CALM      30.20S
MOUNT PLEASANT CLEAR     71  61  70 CALM      30.17S
MUSKEGON       PTCLDY    70  63  78 SE7       30.15S
SOUTH HAVEN    CLEAR     67  63  87 CALM      30.16S
$$
MIZ016>042-240300-
NORTHERN LOWER MICHIGAN

CITY           SKY/WX    TMP DP  RH WIND       PRES   REMARKS
ALPENA         CLEAR     74  58  57 S8        30.15R
BEAVER ISLAND  CLEAR     71  61  71 S8        30.10S
BELLAIRE       CLEAR     71  58  64 S5        30.13S
CADILLAC       CLEAR     66  58  75 S5        30.16F
CHARLEVOIX     PTCLDY    72  59  64 S5        30.14S
FRANKFORT      CLEAR     70  58  66 SE5       30.11S
GAYLORD        CLEAR     69  57  65 SW8       30.16R
GRAYLING       CLEAR     68  59  72 SW5       30.18S
HARBOR SPRINGS CLEAR     72  63  73 SW3       30.12R
HOUGHTON LAKE  CLEAR     68  59  73 S3        30.18S
MANISTEE       PTCLDY    68  59  73 SE5       30.11F
OSCODA         CLEAR     70  60  71 S5        30.16S
PELLSTON       CLEAR     65  60  84 S3        30.12R
ROGERS CITY    CLEAR     67  64  90 CALM      30.13S
TRAVERSE CITY  PTCLDY    71  57  61 CALM      30.11F
$$
MIZ007>008-015-240300-
EASTERN UPPER MICHIGAN

CITY           SKY/WX    TMP DP  RH WIND       PRES   REMARKS
KINROSS        CLEAR     69  58  67 S6        30.10R
MACKINAC ISLAN CLEAR     71  60  69 SW7       30.11R
NEWBERRY       CLEAR     68  64  88 SW12G20   30.08S
S. S. MARIE    CLEAR     69  57  65 S3        30.09R
$$
MIZ004>006-011>014-085-240300-
CENTRAL UPPER MICHIGAN

CITY           SKY/WX    TMP DP  RH WIND       PRES   REMARKS
MANISTIQUE     PTCLDY    66  64  92 S8        30.07S
ESCANABA       CLEAR     70  66  87 S9        30.04F
MENOMINEE        N/A    N/A N/A N/A MISG        N/A
SAWYER-GWINN   CLEAR     70  61  73 S13       30.03F
$$
MIZ001>003-009>011-084-240300-
WESTERN UPPER MICHIGAN

CITY           SKY/WX    TMP DP  RH WIND       PRES   REMARKS
IRON MOUNTAIN  PTCLDY    69  61  75 SE5       30.03S
HOUGHTON       PTCLDY    75  61  61 SW9       29.95S
COPPER HARBOR    N/A     76  63  64 SW9       29.92S
IRONWOOD       PTCLDY    72  64  76 S6        29.95F
$$

ABBREVIATIONS USED IN REMARKS
   TC - TEMPERATURE IN CELSIUS
  WCI - WIND CHILL INDEX
   HX - HEAT INDEX
  VSB - VISIBILITY




USA.gov is the U.S. government's official web portal to all federal, state and local government web resources and services.